EW9427 Weather Reports


Display with metric or nautical units.
time (UTC)temp
F
wind
direction
speed
MPH
gust
MPH
rain 1hr
in
rain 24hr
in
rain mn
in
humidity
%
barometer
mb
20260504034554 58 360 10.0 15.0 0.00 0.00 0.00 38 1009.8
20260504033103 59 5 11.0 16.0 0.00 0.00 0.00 37 1009.5
20260504031556 59 19 10.0 16.0 0.00 0.00 0.00 37 1009.3
20260504024552 62 15 11.0 21.0 0.00 0.00 0.00 33 1008.8
20260504023050 64 16 13.0 20.0 0.00 0.00 0.00 30 1008.6
20260504021552 66 14 14.0 18.0 0.00 0.00 0.00 26 1008.6
20260504020054 67 360 6.0 10.0 0.00 0.00 0.00 24 1008.5
20260504014547 69 348 10.0 14.0 0.00 0.00 0.00 23 1008.6
20260504013051 70 360 9.0 14.0 0.00 0.00 0.00 23 1008.6
20260504011541 71 345 8.0 18.0 0.00 0.00 0.00 23 1008.6
20260504010051 72 360 10.0 18.0 0.00 0.00 0.00 22 1008.7
20260504004544 72 338 11.0 17.0 0.00 0.00 0.00 22 1008.8
20260504003036 72 340 14.0 20.0 0.00 0.00 0.00 22 1008.9
20260504001538 73 341 11.0 20.0 0.00 0.00 0.00 22 1009.0
20260504000033 73 333 10.0 21.0 0.00 0.00 0.00 21 1009.1
20260503234535 73 344 14.0 21.0 0.00 0.00 0.00 21 1009.1
20260503233031 73 324 11.0 18.0 0.00 0.00 0.00 21 1009.2
20260503231529 73 329 6.0 19.0 0.00 0.00 0.00 21 1009.2
20260503230029 74 283 10.0 19.0 0.00 0.00 0.00 21 1009.3
20260503224527 74 279 11.0 21.0 0.00 0.00 0.00 21 1009.4
20260503223024 73 302 9.0 18.0 0.00 0.00 0.00 22 1009.6
20260503221522 73 301 11.0 18.0 0.00 0.00 0.00 21 1009.8
20260503220030 73 331 9.0 20.0 0.00 0.00 0.00 22 1009.9
20260503214529 73 271 13.0 19.0 0.00 0.00 0.00 21 1010.1
20260503213029 73 290 10.0 16.0 0.00 0.00 0.00 22 1010.1
20260503211516 72 277 12.0 23.0 0.00 0.00 0.00 23 1010.5
20260503210016 72 291 8.0 21.0 0.00 0.00 0.00 23 1010.7
20260503204521 71 283 10.0 18.0 0.00 0.00 0.00 23 1010.8
20260503203012 71 309 7.0 17.0 0.00 0.00 0.00 23 1010.9
20260503201506 72 298 10.0 17.0 0.00 0.00 0.00 24 1011.2
20260503200006 71 336 8.0 19.0 0.00 0.00 0.00 23 1011.4
20260503194502 70 254 11.0 19.0 0.00 0.00 0.00 23 1011.5
20260503193110 71 315 10.0 16.0 0.00 0.00 0.00 22 1011.7
20260503191608 69 280 11.0 18.0 0.00 0.00 0.00 23 1011.8
20260503190057 69 304 6.0 14.0 0.00 0.00 0.00 23 1012.0
20260503184553 70 261 6.0 13.0 0.00 0.00 0.00 24 1012.2
20260503183056 70 260 8.0 15.0 0.00 0.00 0.00 24 1012.3
20260503181558 69 277 9.0 18.0 0.00 0.00 0.00 25 1012.6
20260503180049 69 345 7.0 17.0 0.00 0.00 0.00 25 1012.7
20260503174543 69 327 10.0 17.0 0.00 0.00 0.00 25 1012.8
20260503173040 68 340 10.0 16.0 0.00 0.00 0.00 25 1013.1
20260503171535 68 286 9.0 16.0 0.00 0.00 0.00 27 1013.1
20260503081542 35 316 1.0 4.0 0.00 0.00 0.00 79 1015.7
20260503071530 37 316 3.0 5.0 0.00 0.00 0.00 75 1016.1
20260503054513 44 24 0.0 0.0 0.00 0.00 0.00 66 1016.2
20260503053013 47 24 2.0 4.0 0.00 0.00 0.00 61 1016.3
20260503051504 50 300 1.0 5.0 0.00 0.00 0.00 62 1016.2
20260503050003 49 203 1.0 4.0 0.00 0.00 0.00 64 1016.3
20260503044501 50 243 3.0 5.0 0.00 0.00 0.00 65 1016.3
20260503043100 51 205 0.0 3.0 0.00 0.00 0.00 61 1016.4
20260503041613 54 252 2.0 4.0 0.00 0.00 0.00 57 1016.4
20260503040058 56 244 7.0 10.0 0.00 0.00 0.00 55 1016.6